VELA 9/10 INTERSTAGE

导读 | 星芒AI

VELA 9/10 INTERSTAGE 是美国在1960年代发射的一系列 VELA 卫星之间的实验性航天器,主要用于探测和监测核爆炸。该卫星由美国国防部和能源部联合研制,作为 VELA 计划的一部分,旨在验证核爆炸探测技术,特别是在太空中检测 X 射线和伽马射线信号。尽管 VELA 9/10 INTERSTAGE 并非正式的 VELA 卫星,但其在冷战期间的核监测系统中发挥了重要作用,为后续卫星的部署提供了关键技术验证。

基本信息
目录编号:
60001
目录名称:
VELA 9/10 INTERSTAGE
国际标识:
1969-046G
轨道中心:
EARTH
卫星名称:
VELA 9/10 INTERSTAGE
卫星全名:
VELA 9/10 INTERSTAGE
卫星状态:
在轨 (已飞行20660 天)
发射日期:
1969-05-23 UTC
国别 :
美国 (US)
星等 :
--
轨道信息
数据来源 国际轨道数据
星历时间: 2025-08-08T07:42:00+0800
轨道信息已过期129天
半长轴: 70702.446km
偏心率: 0.8067614
轨道倾角: 16.442°
近地点辐角 264.624°
升交点赤经 35.050°
平近点角 0.298°
近地点: 7284.306km
远地点: 121364.316km
周期: 3118.253分钟
每日圈数: 0.461797
详细信息
使用方式:
暂无
2D轨道图
3D轨道图
轨道高度分析图
轨道倾角分析图
轨道综合分析图
查看轨道综合分析图